| time (UTC) | temp F | wind direction | speed MPH | gust MPH | rain 1hr in | rain 24hr in | rain mn in | humidity % | barometer mb |
| 20260906055206 | 50 | 358 | 4.0 | 7.0 | 0.02 | 0.03 | 0.03 | 100 | 1017.8 |
| 20260906054202 | 50 | 7 | 1.0 | 3.0 | 0.01 | 0.02 | 0.02 | 100 | 1018.0 |
| 20260906053206 | 51 | 311 | 3.0 | 9.0 | 0.01 | 0.02 | 0.02 | 99 | 1018.0 |
| 20260906052242 | 52 | 256 | 3.0 | 9.0 | 0.01 | 0.02 | 0.02 | 96 | 1018.1 |
| 20260906051203 | 54 | 251 | 5.0 | 11.0 | 0.00 | 0.01 | 0.01 | 88 | 1017.9 |
| 20260906050202 | 54 | 237 | 4.0 | 9.0 | 0.00 | 0.01 | 0.01 | 87 | 1017.9 |
| 20260906045203 | 54 | 237 | 3.0 | 7.0 | 0.00 | 0.01 | 0.01 | 86 | 1017.5 |
| 20260906044223 | 54 | 323 | 1.0 | 2.0 | 0.00 | 0.01 | 0.01 | 85 | 1017.1 |
| 20260906043202 | 55 | 247 | 1.0 | 4.0 | 0.00 | 0.01 | 0.01 | 83 | 1017.1 |
| 20260906042202 | 57 | 270 | 2.0 | 5.0 | 0.00 | 0.01 | 0.01 | 76 | 1016.8 |
| 20260906041203 | 58 | 355 | 1.0 | 6.0 | 0.00 | 0.01 | 0.01 | 68 | 1016.8 |
| 20260906040203 | 58 | 352 | 1.0 | 4.0 | 0.00 | 0.01 | 0.01 | 69 | 1016.6 |
| 20260906035202 | 58 | 262 | 2.0 | 6.0 | 0.00 | 0.01 | 0.01 | 68 | 1016.5 |
| 20260906034203 | 59 | 255 | 2.0 | 5.0 | 0.00 | 0.01 | 0.01 | 67 | 1016.2 |
| 20260906033223 | 60 | 348 | 2.0 | 8.0 | 0.00 | 0.01 | 0.01 | 65 | 1016.0 |
| 20260906032202 | 60 | 307 | 3.0 | 6.0 | 0.00 | 0.01 | 0.01 | 64 | 1015.9 |
| 20260906031222 | 61 | 357 | 3.0 | 9.0 | 0.00 | 0.01 | 0.01 | 62 | 1015.7 |
| 20260906030202 | 61 | 343 | 3.0 | 6.0 | 0.00 | 0.01 | 0.01 | 61 | 1015.5 |
| 20260906025202 | 62 | 0 | 3.0 | 9.0 | 0.00 | 0.01 | 0.01 | 60 | 1015.4 |
| 20260906024223 | 62 | 3 | 3.0 | 10.0 | 0.00 | 0.01 | 0.01 | 60 | 1015.4 |
| 20260906023203 | 62 | 352 | 4.0 | 8.0 | 0.00 | 0.01 | 0.01 | 59 | 1015.3 |
| 20260906022202 | 62 | 6 | 5.0 | 8.0 | 0.00 | 0.01 | 0.01 | 59 | 1015.3 |
| 20260906021223 | 63 | 11 | 4.0 | 8.0 | 0.00 | 0.01 | 0.01 | 59 | 1015.3 |
| 20260906020204 | 63 | 359 | 5.0 | 9.0 | 0.00 | 0.01 | 0.01 | 59 | 1015.3 |
| 20260906015203 | 63 | 2 | 6.0 | 12.0 | 0.00 | 0.01 | 0.01 | 59 | 1015.3 |
| 20260906014223 | 63 | 9 | 6.0 | 13.0 | 0.00 | 0.01 | 0.01 | 58 | 1015.3 |
| 20260906013202 | 63 | 359 | 7.0 | 12.0 | 0.00 | 0.01 | 0.01 | 57 | 1015.2 |
| 20260906012203 | 64 | 354 | 7.0 | 10.0 | 0.00 | 0.01 | 0.01 | 57 | 1015.2 |
| 20260906011203 | 64 | 6 | 5.0 | 9.0 | 0.00 | 0.01 | 0.01 | 56 | 1015.2 |
| 20260906010223 | 65 | 357 | 5.0 | 9.0 | 0.00 | 0.01 | 0.01 | 55 | 1015.2 |
| 20260906005203 | 65 | 354 | 7.0 | 13.0 | 0.00 | 0.01 | 0.01 | 55 | 1015.2 |
| 20260906004223 | 65 | 5 | 5.0 | 11.0 | 0.00 | 0.01 | 0.01 | 55 | 1015.2 |
| 20260906003203 | 66 | 356 | 4.0 | 9.0 | 0.00 | 0.01 | 0.01 | 53 | 1015.1 |
| 20260906002223 | 66 | 9 | 7.0 | 11.0 | 0.00 | 0.01 | 0.01 | 52 | 1015.1 |
| 20260906001203 | 67 | 17 | 6.0 | 11.0 | 0.00 | 0.01 | 0.01 | 51 | 1015.1 |
| 20260906000204 | 68 | 5 | 6.0 | 10.0 | 0.00 | 0.01 | 0.01 | 50 | 1015.0 |
| 20260905235203 | 68 | 11 | 5.0 | 9.0 | 0.00 | 0.01 | 0.01 | 50 | 1014.9 |
| 20260905234203 | 68 | 348 | 4.0 | 8.0 | 0.00 | 0.01 | 0.01 | 51 | 1015.0 |
| 20260905233203 | 68 | 15 | 3.0 | 10.0 | 0.00 | 0.01 | 0.01 | 51 | 1015.0 |
| 20260905232204 | 68 | 359 | 3.0 | 5.0 | 0.00 | 0.01 | 0.01 | 50 | 1015.1 |
| 20260905231203 | 71 | 270 | 3.0 | 7.0 | 0.00 | 0.01 | 0.01 | 46 | 1015.1 |
| 20260905230223 | 71 | 241 | 4.0 | 9.0 | 0.00 | 0.01 | 0.01 | 47 | 1015.2 |
| 20260905225203 | 72 | 243 | 4.0 | 8.0 | 0.00 | 0.02 | 0.01 | 46 | 1015.1 |
| 20260905224203 | 70 | 285 | 2.0 | 6.0 | 0.00 | 0.02 | 0.01 | 48 | 1015.2 |
| 20260905223204 | 71 | 327 | 1.0 | 5.0 | 0.00 | 0.02 | 0.01 | 46 | 1015.3 |
| 20260905222203 | 71 | 356 | 1.0 | 3.0 | 0.00 | 0.02 | 0.01 | 47 | 1015.4 |
| 20260905221203 | 71 | 3 | 1.0 | 5.0 | 0.00 | 0.02 | 0.01 | 48 | 1015.5 |
| 20260905220203 | 69 | 151 | 2.0 | 7.0 | 0.00 | 0.02 | 0.01 | 50 | 1015.5 |
| 20260905215203 | 69 | 170 | 2.0 | 7.0 | 0.00 | 0.02 | 0.01 | 51 | 1015.6 |
| 20260905214243 | 70 | 226 | 1.0 | 4.0 | 0.00 | 0.02 | 0.01 | 51 | 1015.8 |
| 20260905213203 | 69 | 349 | 2.0 | 5.0 | 0.00 | 0.02 | 0.01 | 50 | 1015.9 |
| 20260905212243 | 68 | 13 | 2.0 | 7.0 | 0.00 | 0.02 | 0.01 | 51 | 1016.0 |
| 20260905211223 | 67 | 300 | 3.0 | 7.0 | 0.00 | 0.02 | 0.01 | 52 | 1016.2 |
| 20260905210203 | 66 | 191 | 4.0 | 9.0 | 0.00 | 0.02 | 0.01 | 55 | 1016.4 |
| 20260905205203 | 67 | 342 | 3.0 | 6.0 | 0.00 | 0.02 | 0.01 | 53 | 1016.4 |
| 20260905204203 | 67 | 211 | 3.0 | 8.0 | 0.00 | 0.02 | 0.01 | 54 | 1016.6 |
| 20260905203203 | 66 | 206 | 1.0 | 7.0 | 0.00 | 0.02 | 0.01 | 54 | 1016.7 |
| 20260905202203 | 66 | 183 | 2.0 | 5.0 | 0.00 | 0.02 | 0.01 | 56 | 1016.8 |
| 20260905201224 | 65 | 232 | 4.0 | 9.0 | 0.00 | 0.02 | 0.01 | 55 | 1016.9 |
| 20260905200203 | 64 | 217 | 2.0 | 5.0 | 0.00 | 0.02 | 0.01 | 57 | 1016.9 |
| 20260905195223 | 65 | 219 | 4.0 | 12.0 | 0.00 | 0.02 | 0.01 | 56 | 1017.0 |
| 20260905194223 | 64 | 230 | 3.0 | 7.0 | 0.00 | 0.02 | 0.01 | 56 | 1017.2 |
| 20260905193203 | 65 | 208 | 3.0 | 6.0 | 0.00 | 0.02 | 0.01 | 55 | 1017.1 |
| 20260905192204 | 63 | 200 | 4.0 | 8.0 | 0.00 | 0.02 | 0.01 | 57 | 1017.3 |
| 20260905191203 | 63 | 158 | 2.0 | 6.0 | 0.00 | 0.02 | 0.01 | 60 | 1017.2 |
| 20260905190203 | 63 | 163 | 2.0 | 7.0 | 0.00 | 0.02 | 0.01 | 60 | 1017.4 |
| 20260905185204 | 62 | 100 | 0.0 | 3.0 | 0.00 | 0.02 | 0.01 | 62 | 1017.5 |
| 20260905184203 | 61 | 192 | 3.0 | 6.0 | 0.00 | 0.02 | 0.01 | 65 | 1017.7 |
| 20260905183223 | 59 | 216 | 4.0 | 7.0 | 0.00 | 0.02 | 0.01 | 71 | 1017.8 |
| 20260905182203 | 59 | 224 | 2.0 | 8.0 | 0.00 | 0.02 | 0.01 | 72 | 1018.0 |
| 20260905181204 | 59 | 220 | 2.0 | 5.0 | 0.00 | 0.02 | 0.01 | 72 | 1018.0 |
| 20260905180203 | 58 | 167 | 1.0 | 5.0 | 0.00 | 0.02 | 0.01 | 76 | 1018.2 |
| 20260905175203 | 57 | 191 | 0.0 | 3.0 | 0.00 | 0.02 | 0.01 | 80 | 1018.3 |
| 20260905174204 | 55 | 311 | 1.0 | 3.0 | 0.00 | 0.02 | 0.01 | 83 | 1018.5 |
| 20260905173203 | 54 | 12 | 2.0 | 5.0 | 0.00 | 0.02 | 0.01 | 84 | 1018.5 |
| 20260905172203 | 53 | 223 | 0.0 | 2.0 | 0.00 | 0.02 | 0.01 | 89 | 1018.6 |
| 20260905171203 | 51 | 0.0 | 1.0 | 0.00 | 0.02 | 0.01 | 91 | 1018.5 | |
| 20260905170203 | 50 | 357 | 0.0 | 2.0 | 0.00 | 0.02 | 0.01 | 92 | 1018.4 |
| 20260905165204 | 49 | 0.0 | 0.0 | 0.00 | 0.02 | 0.01 | 95 | 1018.4 | |
| 20260905164203 | 49 | 0.0 | 0.0 | 0.00 | 0.02 | 0.01 | 95 | 1018.5 | |
| 20260905163204 | 50 | 235 | 0.0 | 3.0 | 0.00 | 0.02 | 0.01 | 94 | 1018.5 |
| 20260905162204 | 48 | 230 | 0.0 | 2.0 | 0.00 | 0.02 | 0.01 | 99 | 1018.6 |
| 20260905161204 | 46 | 217 | 3.0 | 5.0 | 0.00 | 0.02 | 0.01 | 99 | 1018.7 |
| 20260905160204 | 47 | 231 | 2.0 | 4.0 | 0.00 | 0.02 | 0.01 | 98 | 1018.7 |
| 20260905155204 | 47 | 212 | 1.0 | 3.0 | 0.00 | 0.02 | 0.01 | 97 | 1018.6 |
| 20260905154204 | 47 | 216 | 1.0 | 4.0 | 0.00 | 0.02 | 0.01 | 97 | 1018.6 |
| 20260905153203 | 46 | 204 | 4.0 | 6.0 | 0.00 | 0.02 | 0.01 | 98 | 1018.6 |
| 20260905152204 | 46 | 207 | 5.0 | 7.0 | 0.00 | 0.02 | 0.01 | 98 | 1018.7 |
| 20260905151204 | 47 | 192 | 6.0 | 8.0 | 0.00 | 0.02 | 0.01 | 97 | 1018.7 |
| 20260905150204 | 46 | 203 | 4.0 | 7.0 | 0.00 | 0.02 | 0.01 | 99 | 1018.6 |
| 20260905145204 | 45 | 221 | 3.0 | 6.0 | 0.00 | 0.02 | 0.01 | 100 | 1018.6 |
| 20260905144204 | 44 | 0.0 | 0.0 | 0.00 | 0.02 | 0.01 | 100 | 1018.5 | |
| 20260905143204 | 44 | 190 | 2.0 | 4.0 | 0.00 | 0.02 | 0.01 | 100 | 1018.4 |
| 20260905142203 | 43 | 182 | 1.0 | 4.0 | 0.00 | 0.02 | 0.01 | 100 | 1018.4 |
| 20260905141204 | 43 | 204 | 3.0 | 7.0 | 0.00 | 0.02 | 0.01 | 100 | 1018.3 |
| 20260905140204 | 43 | 180 | 3.0 | 6.0 | 0.00 | 0.02 | 0.01 | 100 | 1018.2 |
| 20260905135204 | 43 | 201 | 4.0 | 6.0 | 0.00 | 0.02 | 0.01 | 100 | 1018.0 |
| 20260905134244 | 43 | 207 | 4.0 | 6.0 | 0.00 | 0.02 | 0.01 | 100 | 1018.1 |
| 20260905133224 | 44 | 215 | 2.0 | 3.0 | 0.00 | 0.02 | 0.01 | 100 | 1018.0 |
| 20260905132204 | 44 | 189 | 1.0 | 5.0 | 0.00 | 0.02 | 0.01 | 100 | 1017.9 |
| 20260905131204 | 43 | 199 | 3.0 | 6.0 | 0.00 | 0.02 | 0.01 | 100 | 1018.0 |
| 20260905130204 | 42 | 203 | 3.0 | 5.0 | 0.00 | 0.02 | 0.01 | 100 | 1017.9 |
| 20260905125204 | 42 | 208 | 5.0 | 8.0 | 0.00 | 0.02 | 0.01 | 100 | 1017.9 |
| 20260905124204 | 42 | 199 | 6.0 | 8.0 | 0.00 | 0.02 | 0.01 | 100 | 1018.0 |
| 20260905123204 | 43 | 218 | 3.0 | 5.0 | 0.00 | 0.02 | 0.01 | 100 | 1017.9 |
| 20260905122204 | 43 | 198 | 3.0 | 5.0 | 0.00 | 0.02 | 0.01 | 100 | 1018.0 |
| 20260905121204 | 42 | 206 | 4.0 | 6.0 | 0.00 | 0.02 | 0.01 | 100 | 1018.0 |
| 20260905120204 | 43 | 201 | 4.0 | 6.0 | 0.00 | 0.02 | 0.01 | 100 | 1017.9 |
| 20260905115224 | 43 | 186 | 2.0 | 4.0 | 0.00 | 0.02 | 0.01 | 100 | 1017.9 |
| 20260905114204 | 43 | 204 | 3.0 | 5.0 | 0.00 | 0.02 | 0.01 | 100 | 1018.0 |
| 20260905113204 | 43 | 216 | 3.0 | 6.0 | 0.00 | 0.02 | 0.01 | 100 | 1018.1 |
| 20260905112204 | 41 | 194 | 2.0 | 3.0 | 0.00 | 0.02 | 0.01 | 100 | 1018.2 |
| 20260905111204 | 40 | 0.0 | 0.0 | 0.00 | 0.02 | 0.01 | 100 | 1018.3 | |
| 20260905110204 | 40 | 0.0 | 0.0 | 0.00 | 0.02 | 0.01 | 100 | 1018.3 | |
| 20260905105204 | 40 | 0.0 | 0.0 | 0.00 | 0.02 | 0.01 | 100 | 1018.4 | |
| 20260905104244 | 40 | 0.0 | 0.0 | 0.00 | 0.02 | 0.01 | 100 | 1018.4 | |
| 20260905103204 | 41 | 0.0 | 0.0 | 0.00 | 0.02 | 0.01 | 100 | 1018.3 | |
| 20260905102204 | 41 | 0.0 | 0.0 | 0.00 | 0.02 | 0.01 | 100 | 1018.2 | |
| 20260905101204 | 41 | 0.0 | 0.0 | 0.00 | 0.02 | 0.01 | 100 | 1018.2 | |
| 20260905100204 | 41 | 0.0 | 0.0 | 0.00 | 0.02 | 0.01 | 100 | 1018.2 | |
| 20260905095204 | 41 | 215 | 1.0 | 2.0 | 0.00 | 0.02 | 0.01 | 100 | 1018.2 |
| 20260905094204 | 42 | 0.0 | 0.0 | 0.00 | 0.02 | 0.01 | 100 | 1018.2 | |
| 20260905093204 | 42 | 197 | 1.0 | 3.0 | 0.00 | 0.02 | 0.01 | 100 | 1018.1 |
| 20260905092224 | 42 | 0.0 | 0.0 | 0.00 | 0.02 | 0.01 | 100 | 1018.2 | |
| 20260905091204 | 43 | 0.0 | 0.0 | 0.00 | 0.02 | 0.01 | 100 | 1018.2 | |
| 20260905090204 | 43 | 228 | 1.0 | 3.0 | 0.00 | 0.02 | 0.01 | 100 | 1018.1 |
| 20260905085204 | 43 | 220 | 0.0 | 2.0 | 0.00 | 0.02 | 0.01 | 100 | 1018.1 |
| 20260905084204 | 43 | 200 | 2.0 | 5.0 | 0.01 | 0.02 | 0.01 | 100 | 1017.9 |
| 20260905083244 | 43 | 211 | 2.0 | 4.0 | 0.01 | 0.02 | 0.01 | 100 | 1017.8 |
| 20260905082224 | 44 | 0.0 | 0.0 | 0.01 | 0.02 | 0.01 | 100 | 1017.7 | |
| 20260905081204 | 44 | 0.0 | 1.0 | 0.01 | 0.02 | 0.01 | 100 | 1017.7 | |
| 20260905080204 | 43 | 0.0 | 0.0 | 0.01 | 0.02 | 0.01 | 100 | 1017.7 | |
| 20260905075204 | 43 | 0.0 | 0.0 | 0.01 | 0.02 | 0.01 | 100 | 1017.6 | |
| 20260905074224 | 42 | 0.0 | 1.0 | 0.00 | 0.01 | 0.00 | 100 | 1017.5 | |
| 20260905073204 | 42 | 0.0 | 0.0 | 0.00 | 0.01 | 0.00 | 100 | 1017.4 | |
| 20260905072204 | 43 | 0.0 | 0.0 | 0.00 | 0.01 | 0.00 | 100 | 1017.4 | |
| 20260905071224 | 43 | 0.0 | 0.0 | 0.00 | 0.01 | 0.00 | 100 | 1017.4 | |
| 20260905070204 | 43 | 0.0 | 0.0 | 0.00 | 0.01 | 0.00 | 100 | 1017.2 | |
| 20260905065204 | 44 | 0.0 | 0.0 | 0.00 | 0.01 | 0.01 | 100 | 1017.2 | |
| 20260905064204 | 44 | 0.0 | 0.0 | 0.00 | 0.01 | 0.01 | 100 | 1017.0 | |
| 20260905063204 | 45 | 0.0 | 0.0 | 0.00 | 0.01 | 0.01 | 100 | 1016.9 | |
| 20260905062204 | 46 | 0.0 | 0.0 | 0.00 | 0.01 | 0.01 | 100 | 1016.8 | |
| 20260905061204 | 47 | 0.0 | 1.0 | 0.00 | 0.01 | 0.01 | 100 | 1016.9 | |
| 20260905060204 | 47 | 0.0 | 0.0 | 0.00 | 0.01 | 0.01 | 100 | 1016.9 |